[[{"header":{"parameterUnit":"m.s-1","parameterCategory":1,"la1":30.2991,"la2":30.254,"lo1":-89.0895,"lo2":-89.0444,"dx":0.0017,"dy":0.0017,"nx":28,"ny":28,"refTime":"2022-12-03T09:00:00:Z","depth":0,"parameterNumber":2,"parameterNumberName":"U-component_of_WINDS"},"data":[0,0,0,0,0,0,0,0,0,0,0,0,0,0,0,0,0,0,0,0,0,0,0,0,0,0,0,0,0,0,0,0,0,0,0,0,0,0,0,0,0,0,0,0,0,0,0,0,0,0,0,0,0,0,0,0,0,0,-1.4556,-1.4556,0,-1.4624,-1.4624,-1.4625,-1.46,-1.4599,-1.4597,-1.4596,-1.4668,-1.4671,-1.4674,0,0,0,0,0,0,0,0,0,0,0,0,0,-1.4406,-1.4409,-1.4556,-1.4556,-1.4557,-1.4623,-1.4624,-1.4625,-1.46,-1.4598,-1.4597,-1.4595,-1.4667,-1.4671,-1.4675,0,0,0,0,0,0,0,0,0,0,0,0,0,-1.4472,-1.441,-1.4555,-1.4553,-1.4553,-1.4623,-1.4624,-1.4626,-1.4601,-1.4598,-1.4596,-1.4594,-1.4665,-1.467,-1.4675,-1.4753,0,0,-1.4691,-1.4693,0,0,0,0,0,0,0,0,-1.4468,-1.4478,-1.4552,-1.4553,-1.4554,-1.4601,-1.4598,-1.4668,-1.4601,-1.4583,-1.4595,-1.4593,-1.4648,-1.4654,-1.4672,-1.4756,-1.476,-1.4691,-1.4694,-1.4696,-1.4698,0,0,0,0,0,0,0,-1.4464,-1.4475,-1.4583,-1.4553,-1.4554,-1.4549,-1.4556,-1.4611,-1.4628,-1.4584,-1.4583,-1.4591,-1.4648,-1.4667,-1.4673,-1.4761,-1.4691,-1.4696,-1.4699,-1.4701,-1.4912,-1.4914,0,0,0,0,0,0,-1.4459,-1.4471,-1.458,-1.4585,-1.4504,-1.4553,-1.4561,-1.4588,-1.4627,-1.463,-1.4593,-1.4589,-1.466,-1.4668,-1.4676,-1.4769,-1.4696,-1.4701,-1.4704,-1.4909,-1.4912,-1.4915,0,0,0,0,0,0,-1.4456,-1.4469,-1.4578,-1.4527,-1.4541,-1.4558,-1.4589,-1.4591,-1.461,-1.4633,-1.4636,-1.461,-1.4658,-1.4669,-1.4734,-1.4771,-1.4703,-1.4708,-1.4906,-1.491,-1.4914,-1.4957,0,0,0,0,0,0,-1.4451,-1.4468,-1.4497,-1.4528,-1.4544,-1.4634,-1.4591,-1.4594,-1.4619,-1.4615,-1.465,-1.4653,-1.4657,-1.4726,-1.4739,-1.4777,-1.4712,-1.4903,-1.4908,-1.4913,-1.4952,-1.4962,-1.497,0,0,0,0,0,-1.4446,-1.4507,-1.4499,-1.4512,-1.458,-1.4636,-1.4645,-1.4647,-1.4622,-1.4652,-1.4666,-1.4652,-1.4765,-1.4733,-1.4747,-1.4788,-1.4901,-1.4907,-1.4912,-1.4948,-1.496,-1.497,0,0,0,0,0,0,-1.4481,-1.4511,-1.4502,-1.4575,-1.4603,-1.4632,-1.467,-1.466,-1.4696,-1.4691,-1.4693,-1.4702,-1.4768,-1.4784,-1.4748,-1.4865,-1.4829,-1.4838,-1.4852,-1.4863,-1.4872,-1.4867,-1.4716,0,0,0,0,0,-1.4497,-1.4539,-1.4563,-1.4625,-1.464,-1.4652,-1.4677,-1.4676,-1.4705,-1.4717,-1.4737,-1.4767,-1.4809,-1.4837,-1.4877,-1.4954,-1.4961,-1.4989,-1.4997,-1.5005,-1.5012,-1.5054,-1.5067,-1.4934,-1.4934,-1.4934,0,0,-1.4531,-1.4553,-1.4579,-1.4633,-1.4654,-1.4698,-1.4663,-1.4711,-1.4744,-1.4725,-1.4787,-1.4803,-1.4836,-1.4907,-1.494,-1.4923,-1.505,-1.5012,-1.5018,-1.5022,-1.5062,-1.5074,-1.5085,-1.4938,-1.4938,-1.4937,0,0,-1.4615,-1.4636,-1.4689,-1.4711,-1.4744,-1.4752,-1.4765,-1.4795,-1.4804,-1.4866,-1.4853,-1.4893,-1.4965,-1.4989,-1.5011,-1.5104,-1.5092,-1.5117,-1.5163,-1.5204,-1.5215,-1.5224,-1.5257,-1.5269,-1.5124,-1.5125,-1.5125,0,-1.4654,-1.4719,-1.4718,-1.4767,-1.4791,-1.4775,-1.483,-1.4852,-1.4896,-1.4914,-1.4894,-1.4984,-1.5005,-1.5082,-1.5104,-1.5123,-1.5138,-1.5113,-1.5213,-1.5222,-1.5231,-1.5262,-1.5275,-1.5127,-1.5127,-1.5127,-1.5126,0,-1.4764,-1.4809,-1.4849,-1.4891,-1.4919,-1.4971,-1.4979,-1.5008,-1.5004,-1.5014,-1.5078,-1.5103,-1.5148,-1.5166,-1.5163,-1.5242,-1.523,-1.5212,-1.5176,-1.5246,-1.5276,-1.5288,-1.5131,-1.513,-1.5129,-1.5129,0,0,-1.4873,-1.4914,-1.4928,-1.4947,-1.4982,-1.5017,-1.5068,-1.511,-1.5135,-1.5166,-1.5209,-1.5271,-1.5253,-1.5278,-1.5278,-1.5314,-1.5385,-1.5291,-1.5292,-1.5308,-1.5474,-1.5488,-1.5502,-1.5378,-1.538,-1.5382,-1.5471,0,-1.496,-1.5048,-1.5049,-1.5131,-1.5173,-1.5158,-1.5202,-1.5228,-1.5239,-1.5276,-1.5288,-1.5332,-1.5305,-1.532,-1.5355,-1.5369,-1.5419,-1.5363,-1.5418,-1.542,-1.5411,-1.5517,-1.5533,-1.5616,-1.5483,-1.5485,-1.5486,0,-1.5074,-1.5107,-1.5193,-1.5221,-1.5238,-1.5278,-1.5317,-1.5353,-1.5382,-1.5387,-1.5415,-1.5409,-1.5461,-1.5424,-1.5496,-1.5458,-1.548,-1.5491,-1.5494,-1.55,-1.5458,-1.5526,-1.5642,-1.5655,-1.5504,-1.5503,-1.5501,0,-1.5145,-1.5212,-1.5271,-1.5288,-1.5322,-1.535,-1.5366,-1.5393,-1.5418,-1.5452,-1.5469,-1.5509,-1.5531,-1.5563,-1.5568,-1.554,-1.5641,-1.5604,-1.5647,-1.5647,-1.5669,-1.5668,-1.5791,-1.5683,-1.5683,-1.5683,-1.5683,0,-1.5242,-1.5295,-1.5303,-1.534,-1.5399,-1.54,-1.5458,-1.5471,-1.5496,-1.5535,-1.5525,-1.5562,-1.5567,-1.5606,-1.561,-1.567,-1.568,-1.5686,-1.5686,-1.5687,-1.5686,-1.5702,-1.5697,-1.5686,-1.5686,-1.5685,-1.5684,0,-1.5332,-1.5339,-1.5403,-1.543,-1.5438,-1.548,-1.5503,-1.5538,-1.5547,-1.5597,-1.5609,-1.5624,-1.5669,-1.5677,-1.5731,-1.5734,-1.5804,-1.5799,-1.5794,-1.5794,-1.5837,-1.5832,-1.5974,-1.5993,-1.5873,-1.5874,-1.5875,0,-1.5394,-1.5434,-1.5464,-1.5489,-1.5506,-1.5547,-1.5572,-1.5574,-1.5602,-1.5638,-1.5669,-1.5712,-1.5747,-1.582,-1.5836,-1.5877,-1.5873,-1.592,-1.5879,-1.5878,-1.5874,-1.5871,-1.5875,-1.5928,-1.5929,-1.593,-1.5931,0,-1.5503,-1.5504,-1.5541,-1.5579,-1.5609,-1.5639,-1.5668,-1.5689,-1.5695,-1.5726,-1.5771,-1.5799,-1.5852,-1.5896,-1.5936,-1.5953,-1.5944,-1.5943,-1.5956,-1.5957,-1.5952,-1.5955,-1.5816,-1.594,-1.5939,-1.5939,-1.5938,-1.5938,-1.558,-1.5615,-1.5642,-1.5683,-1.5704,-1.5731,-1.5765,-1.5778,-1.5815,-1.5859,-1.5858,-1.5908,-1.5936,-1.5989,-1.6008,-1.6047,-1.6033,-1.605,-1.6055,-1.6059,-1.6063,-1.5945,-1.6055,-1.6055,-1.6054,-1.6054,-1.6054,0,-1.5689,-1.5705,-1.5742,-1.5782,-1.5814,-1.5801,-1.5832,-1.586,-1.5903,-1.593,-1.5964,-1.6016,-1.6058,-1.6077,-1.6119,-1.6146,-1.6143,-1.6157,-1.6156,-1.616,-1.6074,-1.6059,-1.6159,-1.6159,-1.6159,-1.6159,-1.6159,-1.6159,-1.5749,-1.5807,-1.5811,-1.588,-1.5896,-1.5944,-1.5962,-1.5987,-1.6008,-1.6066,-1.6101,-1.6112,-1.6136,-1.6179,-1.6217,-1.6221,-1.6237,-1.6254,-1.6256,-1.6176,-1.6166,-1.6155,-1.6142,-1.6257,-1.6257,-1.6338,-1.6339,-1.6339]},{"header":{"parameterUnit":"m.s-1","parameterCategory":1,"la1":30.2991,"la2":30.254,"lo1":-89.0895,"lo2":-89.0444,"dx":0.0017,"dy":0.0017,"nx":28,"ny":28,"refTime":"2022-12-03T09:00:00:Z","depth":0,"parameterNumber":3,"parameterNumberName":"V-component_of_WINDS"},"data":[0,0,0,0,0,0,0,0,0,0,0,0,0,0,0,0,0,0,0,0,0,0,0,0,0,0,0,0,0,0,0,0,0,0,0,0,0,0,0,0,0,0,0,0,0,0,0,0,0,0,0,0,0,0,0,0,0,0,-0.2421,-0.2421,0,-0.2409,-0.2409,-0.2409,-0.2371,-0.237,-0.2369,-0.2369,-0.2357,-0.2357,-0.2358,0,0,0,0,0,0,0,0,0,0,0,0,0,-0.2413,-0.2413,-0.2421,-0.2421,-0.2421,-0.2409,-0.2409,-0.2409,-0.2371,-0.237,-0.2369,-0.2368,-0.2357,-0.2357,-0.2358,0,0,0,0,0,0,0,0,0,0,0,0,0,-0.241,-0.2413,-0.2421,-0.2401,-0.2399,-0.2409,-0.2409,-0.2409,-0.2371,-0.237,-0.2369,-0.2368,-0.2357,-0.2357,-0.2358,-0.2387,0,0,-0.236,-0.236,0,0,0,0,0,0,0,0,-0.241,-0.241,-0.2404,-0.2402,-0.24,-0.239,-0.2401,-0.2401,-0.2372,-0.2382,-0.2369,-0.2367,-0.2369,-0.2369,-0.2369,-0.2387,-0.2386,-0.236,-0.2361,-0.2361,-0.2361,0,0,0,0,0,0,0,-0.241,-0.2411,-0.2416,-0.2404,-0.2402,-0.2392,-0.2391,-0.2401,-0.2383,-0.2381,-0.2378,-0.2377,-0.2368,-0.2369,-0.2369,-0.2386,-0.236,-0.2361,-0.2361,-0.2361,-0.2427,-0.2428,0,0,0,0,0,0,-0.2413,-0.2411,-0.2417,-0.2416,-0.2402,-0.2394,-0.2392,-0.2395,-0.2382,-0.2379,-0.2378,-0.2375,-0.2368,-0.2368,-0.2368,-0.2401,-0.2361,-0.2361,-0.2362,-0.2425,-0.2427,-0.2428,0,0,0,0,0,0,-0.2413,-0.2414,-0.2417,-0.2413,-0.2412,-0.2395,-0.2399,-0.2395,-0.2396,-0.238,-0.2377,-0.2382,-0.2367,-0.2367,-0.2383,-0.24,-0.2362,-0.2362,-0.2424,-0.2426,-0.2428,-0.2468,0,0,0,0,0,0,-0.2413,-0.2415,-0.2425,-0.2413,-0.2413,-0.2432,-0.24,-0.2396,-0.2397,-0.2393,-0.2383,-0.2381,-0.2366,-0.2382,-0.2383,-0.2401,-0.2363,-0.2422,-0.2425,-0.2427,-0.2465,-0.2471,-0.2477,0,0,0,0,0,-0.2413,-0.2438,-0.2426,-0.2427,-0.2426,-0.2433,-0.2433,-0.2415,-0.2399,-0.2409,-0.2399,-0.2381,-0.2398,-0.2384,-0.2385,-0.2403,-0.2421,-0.2424,-0.2427,-0.2463,-0.247,-0.2477,0,0,0,0,0,0,-0.2452,-0.2436,-0.2423,-0.2444,-0.244,-0.2427,-0.244,-0.2424,-0.2425,-0.2422,-0.24,-0.2398,-0.2417,-0.2411,-0.2395,-0.2431,-0.2407,-0.241,-0.2433,-0.244,-0.2446,-0.2447,-0.2364,0,0,0,0,0,-0.2464,-0.2471,-0.2455,-0.2476,-0.2474,-0.2458,-0.246,-0.2447,-0.2442,-0.2441,-0.2432,-0.2428,-0.2433,-0.2436,-0.244,-0.2464,-0.2462,-0.2477,-0.2483,-0.2488,-0.2491,-0.2504,-0.251,-0.2438,-0.2438,-0.2438,0,0,-0.2487,-0.2478,-0.2484,-0.2483,-0.2479,-0.2487,-0.2457,-0.2466,-0.2472,-0.2442,-0.2456,-0.245,-0.2444,-0.2465,-0.2473,-0.2461,-0.251,-0.2492,-0.2495,-0.2496,-0.2507,-0.2514,-0.252,-0.244,-0.244,-0.244,0,0,-0.2532,-0.2527,-0.2543,-0.2539,-0.2533,-0.2521,-0.2525,-0.2514,-0.2509,-0.2522,-0.25,-0.2507,-0.2515,-0.2512,-0.2512,-0.2556,-0.2539,-0.2558,-0.2588,-0.26,-0.2606,-0.2611,-0.2627,-0.2633,-0.2561,-0.2561,-0.2561,0,-0.2562,-0.2573,-0.2553,-0.2564,-0.2565,-0.2538,-0.2554,-0.2551,-0.2546,-0.2547,-0.2533,-0.2543,-0.2538,-0.2557,-0.2568,-0.2568,-0.2572,-0.2559,-0.2607,-0.2612,-0.2616,-0.2631,-0.2637,-0.2564,-0.2563,-0.2563,-0.2563,0,-0.2609,-0.2617,-0.2631,-0.2626,-0.2628,-0.2642,-0.2625,-0.2629,-0.2616,-0.2606,-0.262,-0.2613,-0.2614,-0.2618,-0.2605,-0.2635,-0.2627,-0.2611,-0.2586,-0.2625,-0.2639,-0.2645,-0.2567,-0.2566,-0.2566,-0.2565,0,0,-0.268,-0.2664,-0.2669,-0.2667,-0.2658,-0.2664,-0.2676,-0.2677,-0.2681,-0.2679,-0.2689,-0.2696,-0.2681,-0.268,-0.2667,-0.2678,-0.2714,-0.266,-0.2659,-0.267,-0.2747,-0.276,-0.2767,-0.2703,-0.2704,-0.2704,-0.2747,0,-0.2723,-0.2743,-0.2726,-0.2749,-0.2756,-0.273,-0.2741,-0.2737,-0.2728,-0.2733,-0.2723,-0.2729,-0.2708,-0.2707,-0.2717,-0.2708,-0.2729,-0.2704,-0.2712,-0.2712,-0.2714,-0.2774,-0.2787,-0.2828,-0.2753,-0.2753,-0.2754,0,-0.2776,-0.2776,-0.28,-0.2789,-0.2791,-0.2801,-0.2801,-0.2805,-0.28,-0.2793,-0.2793,-0.2776,-0.2788,-0.2764,-0.278,-0.2763,-0.2765,-0.2761,-0.2762,-0.2762,-0.2736,-0.2775,-0.2841,-0.2847,-0.2762,-0.2762,-0.2761,0,-0.2825,-0.283,-0.2845,-0.2844,-0.2832,-0.284,-0.2835,-0.2828,-0.283,-0.283,-0.2831,-0.2832,-0.2833,-0.2834,-0.2819,-0.2803,-0.2836,-0.2811,-0.2831,-0.2831,-0.2839,-0.2839,-0.2906,-0.2841,-0.2841,-0.284,-0.284,0,-0.2875,-0.289,-0.2867,-0.2876,-0.2893,-0.2873,-0.2891,-0.2883,-0.2878,-0.2885,-0.2864,-0.2871,-0.285,-0.2856,-0.2844,-0.2858,-0.2859,-0.2854,-0.285,-0.2856,-0.2856,-0.2857,-0.2853,-0.2842,-0.2842,-0.2841,-0.2841,0,-0.2932,-0.2917,-0.2932,-0.2919,-0.2916,-0.2929,-0.2918,-0.2926,-0.2916,-0.2926,-0.2927,-0.2911,-0.2916,-0.2901,-0.2904,-0.2896,-0.2918,-0.291,-0.2919,-0.2917,-0.2938,-0.2936,-0.3007,-0.3015,-0.2945,-0.2946,-0.2946,0,-0.2965,-0.2976,-0.2965,-0.2968,-0.2964,-0.297,-0.2972,-0.2953,-0.2955,-0.295,-0.2959,-0.2963,-0.2964,-0.2974,-0.2963,-0.2965,-0.2957,-0.2982,-0.2957,-0.2962,-0.2958,-0.2957,-0.2958,-0.2987,-0.2988,-0.2989,-0.2989,0,-0.3025,-0.3017,-0.302,-0.302,-0.3023,-0.3022,-0.302,-0.3024,-0.3004,-0.3008,-0.3013,-0.3014,-0.3017,-0.3021,-0.3021,-0.3016,-0.3,-0.2997,-0.3002,-0.3007,-0.3013,-0.301,-0.2933,-0.2995,-0.2995,-0.2994,-0.2994,-0.2994,-0.3071,-0.308,-0.3073,-0.3077,-0.3073,-0.3072,-0.3079,-0.307,-0.3073,-0.3074,-0.3063,-0.307,-0.3065,-0.3063,-0.306,-0.3066,-0.3054,-0.3061,-0.3063,-0.3065,-0.3068,-0.3012,-0.3066,-0.3065,-0.3065,-0.3065,-0.3065,0,-0.313,-0.3124,-0.3128,-0.3126,-0.3129,-0.3113,-0.3109,-0.3113,-0.312,-0.3116,-0.3118,-0.3124,-0.3128,-0.3117,-0.3119,-0.3126,-0.3118,-0.3127,-0.3127,-0.3126,-0.3078,-0.3074,-0.3133,-0.3133,-0.3133,-0.3133,-0.3133,-0.3133,-0.3161,-0.3175,-0.3166,-0.3178,-0.3173,-0.318,-0.3179,-0.3178,-0.3175,-0.3182,-0.3185,-0.3178,-0.3171,-0.3173,-0.3176,-0.3172,-0.3174,-0.3186,-0.318,-0.3136,-0.3129,-0.3123,-0.3119,-0.3186,-0.3186,-0.3227,-0.3227,-0.3227]}]]